Location: Boston
(42.3580°N, 71.0600°W)
Time: 09:21:28
(UTC-05:00)

OTV 5 (USA 277) - Pass Details

Date: 15 October 2017
Orbit: 404 x 417 km, 43.0° (Epoch: 07 September)

Event Time Altitude Azimuth Distance (km) Brightness Sun altitude
Rises 20:20:08 0° 279° (W) 2,356 ? -26.2°
Reaches altitude 10° 20:22:15 10° 279° (W) 1,492 ? -26.6°
Enters shadow 20:23:45 24° 279° (W) 896 ? -26.9°
